Вернуться в каталог

FENGYUN 1C DEB

АктивенSSO
NORAD 32414·DEBRIS·🇨🇳 China

Запущен May 10, 1999 с Taiyuan Satellite Launch Center

Loading…

Ближайшие Пролёты (ближайшие 24 часа)

TLE

СвежийSource: Space-Track

Эпоха: Sep 13, 2026, 11:30 UTC

1 32414U 99025DAA 26256.47942022  .00001444  00000-0  69713-3 0  9992
2 32414  98.8406 331.6899 0043898 289.7366  69.9078 14.19701231976294

Отслеживайте FENGYUN 1C DEB в реальном времени с AllMySat

Download on the App Store